Melbourne, FL

7:52 PM EST on December 07, 2016 (GMT -0500)
Melbourne International

Weather History for KMLB - February, 2013

Change the Weather History Date:

Sunday, February 24, 2013

  Actual Average Record
Temperature  
Mean Temperature 76 °F 64 °F  
Max Temperature 84 °F 74 °F 92 °F (1962)
Min Temperature 67 °F 53 °F 29 °F (1989)
Degree Days  
Heating Degree Days 0 4  
Month to date heating degree days 90 104  
Since 1 July heating degree days 282 473  
Cooling Degree Days 11 2  
Month to date cooling degree days 78 46  
Year to date cooling degree days 182 90  
Growing Degree Days 24 (Base 50)    
Moisture  
Dew Point 67 °F    
Average Humidity 79    
Maximum Humidity 100    
Minimum Humidity 58    
Precipitation  
Precipitation T in 0.09 in 1.20 in (1960)
Month to date precipitation 0.92 2.04  
Year to date precipitation 2.58 4.31  
Sea Level Pressure  
Sea Level Pressure 29.94 in    
Wind  
Wind Speed 8 mph (WSW)    
Max Wind Speed 17 mph    
Max Gust Speed 21 mph    
Visibility 7 miles    
Events Rain    
T = Trace of Precipitation, MM = Missing Value Source: NWS Daily Summary

Daily Weather History Graph

Daily Weather History Graph

Search for Another Location

Airport or City:

Trip Planner

Search our weather history database for the weather conditions in past years. The results will help you decide how hot, cold, wet, or windy it might be!

Date:

Astronomy

Feb. 24, 2013 Rise Set
Actual Time 6:51 AM EST 6:19 PM EST
Civil Twilight 6:28 AM EST 6:43 PM EST
Nautical Twilight 6:00 AM EST 7:10 PM EST
Astronomical Twilight 5:33 AM EST 7:38 PM EST
Moon 5:29 PM EST (2/24) 5:46 AM EST (2/24)
Length of Visible Light 12h 15m
Length of Day
11h 27m
Waxing Gibbous, 99% of the Moon is Illuminated
Feb 24
Waxing Gibbous
Feb 25
Full
Mar 4
Last Quarter
Mar 11
New
Mar 19
First Quarter

Hourly Weather History & Observations

Time (EST) Temp. Heat Index Dew Point Humidity Pressure Visibility Wind Dir Wind Speed Gust Speed Precip Events Conditions
12:53 AM 70.0 °F - 69.1 °F 97% 29.94 in 10.0 mi WSW 9.2 mph - N/A   Clear
1:53 AM 69.1 °F - 69.1 °F 100% 29.93 in 8.0 mi SW 6.9 mph - N/A   Clear
2:27 AM 69.8 °F - 68.0 °F 94% 29.92 in 4.0 mi SSW 9.2 mph - N/A   Scattered Clouds
2:35 AM 69.8 °F - 68.0 °F 94% 29.91 in 2.5 mi SSW 10.4 mph - N/A   Mostly Cloudy
2:53 AM 68.0 °F - 68.0 °F 100% 29.91 in 2.0 mi SW 10.4 mph - N/A   Overcast
3:19 AM 68.0 °F - 68.0 °F 100% 29.91 in 1.5 mi SW 11.5 mph - N/A   Overcast
3:33 AM 66.2 °F - 66.2 °F 100% 29.91 in 3.0 mi SW 11.5 mph - N/A   Overcast
3:53 AM 66.9 °F - 66.9 °F 100% 29.91 in 6.0 mi SW 10.4 mph - N/A   Overcast
4:53 AM 66.9 °F - 66.9 °F 100% 29.90 in 6.0 mi SSW 9.2 mph - N/A   Mostly Cloudy
5:53 AM 66.9 °F - 66.9 °F 100% 29.92 in 3.0 mi WSW 9.2 mph - N/A   Overcast
6:53 AM 66.9 °F - 66.9 °F 100% 29.95 in 2.0 mi WSW 6.9 mph - N/A   Overcast
7:14 AM 66.2 °F - 66.2 °F 100% 29.95 in 3.0 mi SW 9.2 mph - N/A   Overcast
7:37 AM 68.0 °F - 66.2 °F 94% 29.96 in 3.0 mi WSW 9.2 mph - N/A   Overcast
7:53 AM 68.0 °F - 66.9 °F 96% 29.96 in 3.0 mi WSW 9.2 mph - N/A   Overcast
8:53 AM 69.1 °F - 66.9 °F 93% 29.98 in 5.0 mi SW 10.4 mph - N/A   Overcast
9:53 AM 73.0 °F - 68.0 °F 84% 29.98 in 10.0 mi SW 11.5 mph - N/A   Mostly Cloudy
10:53 AM 75.9 °F - 68.0 °F 76% 29.98 in 8.0 mi WSW 8.1 mph - N/A   Overcast
11:53 AM 79.0 °F - 68.0 °F 69% 29.96 in 10.0 mi WSW 9.2 mph 18.4 mph N/A   Mostly Cloudy
12:53 PM 82.9 °F 85.4 °F 66.9 °F 58% 29.94 in 10.0 mi WSW 12.7 mph 19.6 mph N/A   Mostly Cloudy
1:53 PM 82.9 °F 85.0 °F 66.0 °F 56% 29.93 in 10.0 mi WSW 10.4 mph - N/A   Mostly Cloudy
2:53 PM 75.9 °F - 68.0 °F 76% 29.93 in 10.0 mi NNE 12.7 mph - N/A   Overcast
3:53 PM 73.9 °F - 70.0 °F 87% 29.93 in 10.0 mi North 10.4 mph - 0.00 in Rain Light Rain
4:16 PM 73.4 °F - 69.8 °F 88% 29.93 in 10.0 mi North 16.1 mph - 0.00 in   Overcast
4:35 PM 71.6 °F - 68.0 °F 88% 29.93 in 10.0 mi NNE 12.7 mph - 0.00 in   Mostly Cloudy
4:42 PM 71.6 °F - 68.0 °F 88% 29.92 in 10.0 mi NNE 13.8 mph - 0.00 in   Scattered Clouds
4:53 PM 71.1 °F - 68.0 °F 90% 29.93 in 10.0 mi North 12.7 mph - 0.00 in   Partly Cloudy
5:53 PM 70.0 °F - 66.9 °F 90% 29.94 in 10.0 mi North 9.2 mph - N/A   Mostly Cloudy
6:53 PM 69.1 °F - 66.9 °F 93% 29.94 in 10.0 mi NNE 5.8 mph - N/A   Clear
7:53 PM 70.0 °F - 66.9 °F 90% 29.96 in 10.0 mi ENE 5.8 mph - N/A   Clear
8:53 PM 70.0 °F - 66.9 °F 90% 29.98 in 10.0 mi ENE 4.6 mph - N/A   Mostly Cloudy
9:53 PM 70.0 °F - 66.9 °F 90% 29.97 in 10.0 mi ENE 3.5 mph - N/A   Partly Cloudy
10:53 PM 69.1 °F - 66.9 °F 93% 29.95 in 10.0 mi Calm Calm - N/A   Mostly Cloudy
11:53 PM 69.1 °F - 66.9 °F 93% 29.93 in 10.0 mi ENE 3.5 mph - N/A   Scattered Clouds